Meteo orario Abbadia San Salvatore

Oggi, 7 Marzo, Domenica

Tempo Temperatura Precipitazioni Vento Pressione Umidità
00:00 -3°C° 0 mm 2 m/s 675 mm Hg 81%
01:00 -1°C° 0 mm 1 m/s 675 mm Hg 81%
02:00 -1°C° 0 mm 1 m/s 675 mm Hg 79%
03:00 -1°C° 0 mm 1 m/s 675 mm Hg 78%
04:00 -1°C° 0 mm 1 m/s 674 mm Hg 77%
05:00 -1°C° 0 mm 1 m/s 674 mm Hg 75%
06:00 -1°C° 0 mm 1 m/s 674 mm Hg 74%
07:00 -1°C° 0 mm 1 m/s 674 mm Hg 71%
08:00 +1°C° 0 mm 1 m/s 675 mm Hg 70%
09:00 +3°C° 0 mm 1 m/s 675 mm Hg 68%
10:00 +4°C° 0 mm 1 m/s 676 mm Hg 66%
11:00 +5°C° 0.1 mm 1 m/s 676 mm Hg 69%
12:00 +5°C° 0.1 mm 1 m/s 676 mm Hg 73%
13:00 +6°C° 0.1 mm 1 m/s 675 mm Hg 76%
14:00 +5°C° 0.4 mm 1 m/s 675 mm Hg 81%
15:00 +5°C° 0.4 mm 1 m/s 674 mm Hg 86%
16:00 +5°C° 0.4 mm 1 m/s 674 mm Hg 91%
17:00 +4°C° 0.2 mm 1 m/s 673 mm Hg 92%
18:00 +4°C° 0.2 mm 1 m/s 673 mm Hg 94%
19:00 +4°C° 0.2 mm 1 m/s 672 mm Hg 96%
20:00 +4°C° 0.1 mm 1 m/s 672 mm Hg 96%
21:00 +4°C° 0.1 mm 1 m/s 672 mm Hg 96%
22:00 +4°C° 0.1 mm 1 m/s 672 mm Hg 96%
23:00 +4°C° 0.1 mm 1 m/s 672 mm Hg 96%

Domani, 8 Marzo, Lunedi

Tempo Temperatura Precipitazioni Vento Pressione Umidità
00:00 +3°C° 0.1 mm 1 m/s 671 mm Hg 96%
01:00 +3°C° 0.1 mm 1 m/s 671 mm Hg 96%
02:00 +3°C° 0.1 mm 1 m/s 671 mm Hg 96%
03:00 +3°C° 0.1 mm 1 m/s 670 mm Hg 96%
04:00 +3°C° 0.1 mm 1 m/s 670 mm Hg 96%
05:00 +3°C° 0 mm 1 m/s 670 mm Hg 96%
06:00 +3°C° 0 mm 1 m/s 670 mm Hg 96%
07:00 +4°C° 0 mm 1 m/s 670 mm Hg 96%
08:00 +4°C° 0.4 mm 1 m/s 670 mm Hg 95%
09:00 +5°C° 0.4 mm 1 m/s 670 mm Hg 94%
10:00 +5°C° 0.4 mm 1 m/s 671 mm Hg 93%
11:00 +4°C° 0.9 mm 2 m/s 671 mm Hg 93%
12:00 +4°C° 0.9 mm 2 m/s 670 mm Hg 92%
13:00 +4°C° 0.9 mm 2 m/s 670 mm Hg 92%
14:00 +4°C° 2 mm 2 m/s 670 mm Hg 93%
15:00 +4°C° 2 mm 2 m/s 670 mm Hg 94%
16:00 +3°C° 2 mm 2 m/s 669 mm Hg 95%
17:00 +3°C° 0.9 mm 2 m/s 669 mm Hg 95%
18:00 +3°C° 0.9 mm 2 m/s 669 mm Hg 95%
19:00 +2°C° 0.9 mm 2 m/s 669 mm Hg 95%
20:00 +2°C° 0.3 mm 2 m/s 669 mm Hg 95%
21:00 +2°C° 0.3 mm 2 m/s 669 mm Hg 95%
22:00 +2°C° 0.3 mm 2 m/s 669 mm Hg 95%
23:00 +2°C° 0.4 mm 2 m/s 669 mm Hg 95%

Dopodomani, 9 Marzo, Martedi

Tempo Temperatura Precipitazioni Vento Pressione Umidità
00:00 +2°C° 0.4 mm 2 m/s 669 mm Hg 95%
01:00 +2°C° 0.4 mm 2 m/s 668 mm Hg 95%
02:00 +2°C° 0.4 mm 2 m/s 668 mm Hg 95%
03:00 +2°C° 0.4 mm 2 m/s 668 mm Hg 95%
04:00 +2°C° 0.4 mm 2 m/s 668 mm Hg 95%
05:00 +2°C° 0 mm 2 m/s 668 mm Hg 95%
06:00 +2°C° 0 mm 2 m/s 668 mm Hg 95%
07:00 +2°C° 0 mm 2 m/s 668 mm Hg 94%
08:00 +3°C° 0 mm 2 m/s 668 mm Hg 91%
09:00 +4°C° 0 mm 2 m/s 669 mm Hg 87%
10:00 +4°C° 0 mm 2 m/s 669 mm Hg 83%
11:00 +4°C° 0 mm 3 m/s 669 mm Hg 81%
12:00 +5°C° 0 mm 3 m/s 669 mm Hg 78%
13:00 +5°C° 0 mm 3 m/s 670 mm Hg 76%
14:00 +5°C° 0 mm 3 m/s 669 mm Hg 77%
15:00 +4°C° 0 mm 3 m/s 669 mm Hg 78%
16:00 +4°C° 0 mm 3 m/s 669 mm Hg 79%
17:00 +3°C° 0 mm 3 m/s 669 mm Hg 80%
18:00 +2°C° 0 mm 3 m/s 668 mm Hg 82%
19:00 +1°C° 0 mm 3 m/s 668 mm Hg 83%
20:00 +1°C° 0 mm 2 m/s 668 mm Hg 84%
21:00 +1°C° 0 mm 2 m/s 668 mm Hg 85%
22:00 -1°C° 0 mm 2 m/s 668 mm Hg 86%
23:00 -2°C° 0 mm 2 m/s 668 mm Hg 87%

10 Marzo, Mercoledi

Tempo Temperatura Precipitazioni Vento Pressione Umidità
00:00 -2°C° 0 mm 2 m/s 668 mm Hg 88%
01:00 -2°C° 0 mm 2 m/s 668 mm Hg 90%
02:00 -3°C° 0 mm 2 m/s 668 mm Hg 89%
03:00 -3°C° 0 mm 2 m/s 668 mm Hg 89%
04:00 -3°C° 0 mm 2 m/s 668 mm Hg 89%
05:00 -3°C° 0 mm 2 m/s 669 mm Hg 87%
06:00 -3°C° 0 mm 2 m/s 669 mm Hg 85%
07:00 -3°C° 0 mm 2 m/s 669 mm Hg 84%
08:00 -1°C° 0 mm 3 m/s 670 mm Hg 75%
09:00 +1°C° 0 mm 3 m/s 672 mm Hg 67%
10:00 +3°C° 0 mm 3 m/s 673 mm Hg 58%
11:00 +4°C° 0 mm 4 m/s 673 mm Hg 55%
12:00 +5°C° 0 mm 4 m/s 674 mm Hg 51%
13:00 +6°C° 0 mm 4 m/s 674 mm Hg 48%
14:00 +6°C° 0 mm 4 m/s 674 mm Hg 48%
15:00 +7°C° 0 mm 3 m/s 674 mm Hg 47%
16:00 +7°C° 0 mm 3 m/s 674 mm Hg 47%
17:00 +5°C° 0 mm 2 m/s 674 mm Hg 53%
18:00 +3°C° 0 mm 2 m/s 673 mm Hg 58%
19:00 +2°C° 0 mm 1 m/s 673 mm Hg 63%
20:00 +2°C° 0 mm 1 m/s 674 mm Hg 63%
21:00 +2°C° 0 mm 1 m/s 674 mm Hg 63%
22:00 +1°C° 0 mm 1 m/s 675 mm Hg 62%
23:00 +1°C° 0 mm 1 m/s 675 mm Hg 62%

11 Marzo, Giovedi

Tempo Temperatura Precipitazioni Vento Pressione Umidità
00:00 +1°C° 0 mm 1 m/s 675 mm Hg 62%
01:00 -1°C° 0 mm 0 m/s 675 mm Hg 62%
02:00 -1°C° 0 mm 0 m/s 674 mm Hg 62%
03:00 -1°C° 0 mm 0 m/s 674 mm Hg 63%
04:00 -1°C° 0 mm 0 m/s 674 mm Hg 64%
05:00 -1°C° 0 mm 0 m/s 674 mm Hg 65%
06:00 -1°C° 0 mm 0 m/s 674 mm Hg 66%
07:00 0°C° 0 mm 1 m/s 675 mm Hg 67%
08:00 +2°C° 0 mm 1 m/s 675 mm Hg 63%
09:00 +4°C° 0 mm 1 m/s 676 mm Hg 59%
10:00 +7°C° 0 mm 1 m/s 677 mm Hg 55%
11:00 +7°C° 0 mm 2 m/s 677 mm Hg 56%
12:00 +7°C° 0 mm 3 m/s 677 mm Hg 57%
13:00 +7°C° 0 mm 4 m/s 678 mm Hg 57%
14:00 +7°C° 0 mm 4 m/s 677 mm Hg 62%
15:00 +6°C° 0 mm 4 m/s 677 mm Hg 66%
16:00 +6°C° 0 mm 4 m/s 676 mm Hg 70%
17:00 +5°C° 0 mm 3 m/s 676 mm Hg 78%
18:00 +3°C° 0 mm 3 m/s 675 mm Hg 86%
19:00 +3°C° 0 mm 2 m/s 675 mm Hg 93%
20:00 +2°C° 0 mm 2 m/s 675 mm Hg 93%
21:00 +2°C° 0 mm 2 m/s 675 mm Hg 93%
22:00 +1°C° 0 mm 2 m/s 675 mm Hg 93%
23:00 +2°C° 0 mm 2 m/s 674 mm Hg 92%

12 Marzo, Venerdi

Tempo Temperatura Precipitazioni Vento Pressione Umidità
00:00 +1°C° 0 mm 3 m/s 674 mm Hg 92%
01:00 +1°C° 0 mm 3 m/s 674 mm Hg 91%
02:00 +1°C° 0 mm 3 m/s 674 mm Hg 92%
03:00 +1°C° 0 mm 3 m/s 673 mm Hg 92%
04:00 +1°C° 0 mm 3 m/s 673 mm Hg 92%
05:00 +2°C° 0 mm 3 m/s 673 mm Hg 92%
06:00 +2°C° 0 mm 3 m/s 673 mm Hg 92%
07:00 +2°C° 0 mm 3 m/s 673 mm Hg 92%
08:00 +3°C° 0 mm 4 m/s 673 mm Hg 89%
09:00 +3°C° 0 mm 5 m/s 673 mm Hg 85%
10:00 +5°C° 0 mm 5 m/s 674 mm Hg 82%
11:00 +4°C° 0 mm 6 m/s 674 mm Hg 81%
12:00 +5°C° 0 mm 6 m/s 674 mm Hg 80%
13:00 +5°C° 0 mm 6 m/s 673 mm Hg 79%
14:00 +5°C° 0 mm 6 m/s 673 mm Hg 80%
15:00 +5°C° 0 mm 6 m/s 672 mm Hg 81%
16:00 +4°C° 0 mm 6 m/s 672 mm Hg 82%
17:00 +5°C° 0 mm 5 m/s 672 mm Hg 85%
18:00 +4°C° 0 mm 4 m/s 671 mm Hg 88%
19:00 +3°C° 0 mm 3 m/s 671 mm Hg 91%
20:00 +3°C° 0 mm 3 m/s 671 mm Hg 91%
21:00 +3°C° 0 mm 3 m/s 671 mm Hg 92%
22:00 +3°C° 0 mm 3 m/s 671 mm Hg 93%
23:00 +3°C° 0.1 mm 3 m/s 671 mm Hg 93%
Mostrare altro

Abbiamo bisogno del tuo consenso

Meteoprog e i nostri fornitori di servizi possono memorizzare e accedere a dati personali come cookie, identificatori di dispositivi o altre tecnologie simili sul tuo dispositivo e possono elaborare tali dati per personalizzare i contenuti e gli annunci, nonché fornire funzionalità dei social media e analizzarne il traffico.

  • Archiviare e/o accedere alle informazioni sul tuo dispositivo

    Cookie, identificatori di dispositivi o altre informazioni possono essere memorizzati o resi accessibili sul tuo dispositivo per le finalità sopra indicate.

  • Annunci e contenuti personalizzati, misurazione di annunci e contenuti, approfondimenti sul pubblico e sviluppo di prodotti

    Gli annunci e i contenuti possono essere personalizzati in base a un profilo. È possibile aggiungere più dati per personalizzare meglio annunci e contenuti. È possibile misurare il rendimento degli annunci e dei contenuti. È possibile ricavare informazioni sul pubblico che ha visto gli annunci e i contenuti. Tali dati possono essere utilizzati per sviluppare o migliorare l'esperienza, i sistemi e il software dell'utente.

Cliccando su “Accetto”, acconsenti all'uso di cookie, identificatori di dispositivo, web beacon o altre tecnologie simili. Puoi modificare le impostazioni nel browser del tuo dispositivo.

Per determinati scopi, è possibile fare affidamento su interessi legali, piuttosto che sul consenso. Puoi approfondire questo argomento consultando la nostra Informativa sulla privacy e sui cookie.